sat.trackr.live / text

‹ back to catalog

STARLINK-37305

NORAD 68713 · 2026-081Q

PAYLOAD ACTIVE UNKNOWN

§ Identity

Operator
Country
US
Launch date
2026-04-14
Launch site
AFETR
Launch vehicle
Mass (kg)
RCS (m²)

Purposes: comms

External: N2YO · Heavens-Above · Gunter

§ Orbital elements

Epoch: 2026-05-25T04:00:03.998880Z

Period
93.46 min
Inclination
53.1596°
Eccentricity
0.0001470
Mean motion
15.40831579 rev/d
Perigee alt
442.7 km
Apogee alt
444.7 km
Semi-major
6,821.8 km
B*
-5.1957e-2
RAAN
38.9467°
Arg perigee
91.9600°
Mean anomaly
158.2460°
Rev number
595

§ Raw data

STARLINK-373051 68713U 26081Q   26145.16671295 -.01934871  00000+0 -51957-1 0  99992 68713  53.1596  38.9467 0001470  91.9600 158.2460 15.40831579  5958

JSON: /api/v1/satellites/68713 · /tle

For live sub-satellite position, see the globe view (requires WebGL).

§ Visibility from observer

Set your observer location to see the next 7 days of passes ≥ 10°. The values pass through the URL so the page stays shareable.

No JS? Fill the form by hand. The geolocation button needs JavaScript.